Change the Weather History Date:

Tuesday, April 30, 2013

  Actual Average Record
Temperature  
Mean Temperature 61 °F 59 °F  
Max Temperature 73 °F 71 °F 87 °F (1962)
Min Temperature 49 °F 47 °F 31 °F (2008)
Degree Days  
Heating Degree Days 4 6  
Month to date heating degree days 287 301  
Since 1 July heating degree days 3938 4072  
Cooling Degree Days 0 0  
Month to date cooling degree days 5 7  
Year to date cooling degree days 5 8  
Growing Degree Days 10 (Base 50)    
Moisture  
Dew Point 51 °F    
Average Humidity 75    
Maximum Humidity 100    
Minimum Humidity 49    
Precipitation  
Precipitation 0.00 in 0.11 in 2.14 in (1909)
Month to date precipitation 5.88 3.33  
Year to date precipitation 21.34 14.59  
Snow  
Snow 0.00 in 0.00 in 0.00 in ()
Month to date snowfall 0.0 0.7  
Since 1 July snowfall 0.5 9.9  
Snow Depth 0.00 in    
Sea Level Pressure  
Sea Level Pressure 30.06 in    
Wind  
Wind Speed 3 mph (SSE)    
Max Wind Speed 14 mph    
Max Gust Speed 20 mph    
Visibility 5 miles    
Events Fog    
T = Trace of Precipitation, MM = Missing Value Source: NWS Daily Summary

Daily Weather History Graph

Daily Weather History Graph

Search for Another Location

Airport or City:

Trip Planner

Search our weather history database for the weather conditions in past years. The results will help you decide how hot, cold, wet, or windy it might be!

Date:

Astronomy

Apr. 30, 2013 Rise Set
Actual Time 6:39 AM EDT 8:15 PM EDT
Civil Twilight 6:12 AM EDT 8:43 PM EDT
Nautical Twilight 5:39 AM EDT 9:15 PM EDT
Astronomical Twilight 5:05 AM EDT 9:50 PM EDT
Moon 12:35 AM EDT (4/30) 11:08 AM EDT (4/30)
Length of Visible Light 14h 30m
Length of Day
13h 36m
Waning Gibbous, 70% of the Moon is Illuminated
Apr 30
Waning Gibbous
May 2
Last Quarter
May 9
New
May 18
First Quarter
May 25
Full

Hourly Weather History & Observations

Time (EDT) Temp. Dew Point Humidity Pressure Visibility Wind Dir Wind Speed Gust Speed Precip Events Conditions
12:54 AM 54.0 °F 53.1 °F 97% 29.98 in 10.0 mi Calm Calm - N/A   Clear
1:54 AM 54.0 °F 52.0 °F 93% 29.98 in 10.0 mi Calm Calm - N/A   Clear
2:12 AM 51.8 °F 51.8 °F 100% 30.02 in 2.5 mi Calm Calm - N/A   Partly Cloudy
2:23 AM 51.8 °F 51.8 °F 100% 30.02 in 4.0 mi Calm Calm - N/A   Scattered Clouds
2:46 AM 51.8 °F 51.8 °F 100% 30.02 in 1.5 mi Calm Calm - N/A   Mostly Cloudy
2:54 AM 52.0 °F 51.1 °F 97% 29.98 in 1.2 mi Calm Calm - N/A   Mostly Cloudy
2:58 AM 51.8 °F 51.8 °F 100% 30.02 in 2.0 mi Calm Calm - N/A   Mostly Cloudy
3:00 AM 51.8 °F 51.8 °F 100% 30.02 in 1.2 mi Calm Calm - N/A   Mostly Cloudy
3:09 AM 51.8 °F 51.8 °F 100% 30.02 in 0.5 mi Calm Calm - N/A Fog Fog
3:19 AM 51.8 °F 51.8 °F 100% 30.03 in 0.2 mi Calm Calm - N/A Fog Fog
3:43 AM 51.8 °F 51.8 °F 100% 30.03 in 0.2 mi Calm Calm - N/A Fog Fog
3:54 AM 51.1 °F 51.1 °F 100% 30.00 in 0.2 mi Calm Calm - N/A Fog Fog
3:59 AM 50.0 °F 50.0 °F 100% 30.04 in 0.5 mi Calm Calm - N/A Fog Fog
4:29 AM 50.0 °F 50.0 °F 100% 30.05 in 1.0 mi Calm Calm - N/A   Mist
4:36 AM 50.0 °F 48.2 °F 94% 30.05 in 2.0 mi Calm Calm - N/A   Overcast
4:41 AM 50.0 °F 48.2 °F 94% 30.05 in 1.5 mi Calm Calm - N/A   Overcast
4:45 AM 50.0 °F 50.0 °F 100% 30.05 in 0.8 mi Calm Calm - N/A   Mist
4:54 AM 50.0 °F 48.9 °F 96% 30.02 in 0.5 mi Calm Calm - N/A Fog Fog
5:09 AM 50.0 °F 48.2 °F 94% 30.06 in 0.2 mi Calm Calm - N/A Fog Fog
5:50 AM 48.2 °F 48.2 °F 100% 30.06 in 0.2 mi Calm Calm - N/A Fog Fog
5:54 AM 48.9 °F 48.0 °F 97% 30.03 in 0.2 mi Calm Calm - N/A Fog Fog
5:57 AM 48.2 °F 48.2 °F 100% 30.07 in 0.5 mi Calm Calm - N/A Fog Fog
6:07 AM 48.2 °F 48.2 °F 100% 30.07 in 1.0 mi Calm Calm - N/A   Overcast
6:12 AM 48.2 °F 48.2 °F 100% 30.07 in 2.5 mi Calm Calm - N/A   Overcast
6:19 AM 48.2 °F 48.2 °F 100% 30.07 in 9.0 mi Calm Calm - N/A   Overcast
6:30 AM 48.2 °F 48.2 °F 100% 30.07 in 2.5 mi Calm Calm - N/A   Overcast
6:42 AM 48.2 °F 48.2 °F 100% 30.08 in 2.5 mi Calm Calm - N/A   Overcast
6:54 AM 48.9 °F 48.9 °F 100% 30.05 in 0.2 mi Calm Calm - N/A Fog Fog
7:04 AM 48.2 °F 48.2 °F 100% 30.09 in 0.8 mi South 3.5 mph - N/A   Overcast
7:06 AM 48.2 °F 48.2 °F 100% 30.09 in 1.5 mi South 3.5 mph - N/A   Overcast
7:09 AM 48.2 °F 48.2 °F 100% 30.09 in 3.0 mi Calm Calm - N/A   Overcast
7:54 AM 50.0 °F 50.0 °F 100% 30.08 in 10.0 mi Calm Calm - N/A   Overcast
8:47 AM 51.8 °F 51.8 °F 100% 30.12 in 1.5 mi South 3.5 mph - N/A   Overcast
8:50 AM 51.8 °F 51.8 °F 100% 30.13 in 0.8 mi Calm Calm - N/A   Overcast
8:54 AM 51.1 °F 51.1 °F 100% 30.09 in 0.5 mi Calm Calm - N/A Fog Fog
9:13 AM 53.6 °F 53.6 °F 100% 30.13 in 0.2 mi Calm Calm - N/A Fog Fog
9:54 AM 54.0 °F 54.0 °F 100% 30.09 in 0.5 mi Calm Calm - N/A Fog Fog
10:03 AM 55.4 °F 55.4 °F 100% 30.13 in 1.5 mi Calm Calm - N/A   Overcast
10:07 AM 55.4 °F 55.4 °F 100% 30.13 in 3.0 mi SW 3.5 mph - N/A   Overcast
10:41 AM 60.8 °F 57.2 °F 88% 30.13 in 10.0 mi SSE 4.6 mph - N/A   Scattered Clouds
10:54 AM 62.1 °F 57.0 °F 84% 30.08 in 10.0 mi SSE 4.6 mph - N/A   Scattered Clouds
11:54 AM 66.9 °F 55.0 °F 66% 30.07 in 10.0 mi Variable 4.6 mph - N/A   Clear
12:54 PM 69.1 °F 50.0 °F 51% 30.06 in 10.0 mi South 6.9 mph - 0.01 in   Partly Cloudy
1:54 PM 71.1 °F 51.1 °F 49% 30.04 in 10.0 mi Variable 5.8 mph - N/A   Partly Cloudy
2:54 PM 72.0 °F 52.0 °F 49% 30.03 in 10.0 mi Variable 5.8 mph - N/A   Partly Cloudy
3:54 PM 70.0 °F 51.1 °F 51% 30.03 in 10.0 mi ESE 6.9 mph - N/A   Clear
4:54 PM 70.0 °F 54.0 °F 57% 30.05 in 10.0 mi Variable 6.9 mph 17.3 mph N/A   Mostly Cloudy
5:54 PM 71.1 °F 52.0 °F 51% 30.06 in 10.0 mi South 10.4 mph - N/A   Partly Cloudy
6:54 PM 69.1 °F 52.0 °F 54% 30.08 in 10.0 mi SE 6.9 mph - N/A   Mostly Cloudy
7:54 PM 66.0 °F 54.0 °F 65% 30.10 in 10.0 mi Variable 5.8 mph - N/A   Mostly Cloudy
8:54 PM 64.0 °F 54.0 °F 70% 30.12 in 10.0 mi Calm Calm - N/A   Clear
9:54 PM 62.6 °F 53.6 °F 72% 30.18 in 10.0 mi SE 3.5 mph - N/A   Clear
10:54 PM 59.0 °F 54.0 °F 83% 30.15 in 10.0 mi Calm Calm - N/A   Mostly Cloudy
11:54 PM 57.2 °F 53.6 °F 88% 30.21 in 10.0 mi SW 3.5 mph - N/A   Partly Cloudy